Year,Month,Day,Hour,Minute,Value (Times are PST for temperature in C)
2018,08,20,00,00,14.70
2018,08,20,00,01,14.70
2018,08,20,00,02,14.70
2018,08,20,00,03,14.70
2018,08,20,00,04,14.70
2018,08,20,00,05,14.70
2018,08,20,00,06,14.60
2018,08,20,00,07,14.60
2018,08,20,00,08,14.60
2018,08,20,00,09,14.60
2018,08,20,00,10,14.60
2018,08,20,00,11,14.60
2018,08,20,00,12,14.60
2018,08,20,00,13,14.60
2018,08,20,00,14,14.60
2018,08,20,00,15,14.60
2018,08,20,00,16,14.60
2018,08,20,00,17,14.60
2018,08,20,00,18,14.60
2018,08,20,00,19,14.50
2018,08,20,00,20,14.50
2018,08,20,00,21,14.50
2018,08,20,00,22,14.50
2018,08,20,00,23,14.50
2018,08,20,00,24,14.50
2018,08,20,00,25,14.40
2018,08,20,00,26,14.40
2018,08,20,00,27,14.40
2018,08,20,00,28,14.40
2018,08,20,00,29,14.40
2018,08,20,00,30,14.40
2018,08,20,00,31,14.40
2018,08,20,00,32,14.40
2018,08,20,00,33,14.40
2018,08,20,00,34,14.40
2018,08,20,00,35,14.40
2018,08,20,00,36,14.40
2018,08,20,00,37,14.40
2018,08,20,00,38,14.40
2018,08,20,00,39,14.40
2018,08,20,00,40,14.40
2018,08,20,00,41,14.40
2018,08,20,00,42,14.40
2018,08,20,00,43,14.40
2018,08,20,00,44,14.40
2018,08,20,00,45,14.40
2018,08,20,00,46,14.40
2018,08,20,00,47,14.40
2018,08,20,00,48,14.40
2018,08,20,00,49,14.40
2018,08,20,00,50,14.40
2018,08,20,00,51,14.30
2018,08,20,00,52,14.30
2018,08,20,00,53,14.30
2018,08,20,00,54,14.30
2018,08,20,00,55,14.30
2018,08,20,00,56,14.30
2018,08,20,00,57,14.30
2018,08,20,00,58,14.30
2018,08,20,00,59,14.20
2018,08,20,01,00,14.20
2018,08,20,01,01,14.20
2018,08,20,01,02,14.20
2018,08,20,01,03,14.20
2018,08,20,01,04,14.20
2018,08,20,01,05,14.20
2018,08,20,01,06,14.20
2018,08,20,01,07,14.20
2018,08,20,01,08,14.20
2018,08,20,01,09,14.20
2018,08,20,01,10,14.20
2018,08,20,01,11,14.20
2018,08,20,01,12,14.20
2018,08,20,01,13,14.10
2018,08,20,01,14,14.10
2018,08,20,01,15,14.10
2018,08,20,01,16,14.10
2018,08,20,01,17,14.10
2018,08,20,01,18,14.10
2018,08,20,01,19,14.10
2018,08,20,01,20,14.00
2018,08,20,01,21,14.00
2018,08,20,01,22,14.00
2018,08,20,01,23,14.00
2018,08,20,01,24,14.00
2018,08,20,01,25,14.10
2018,08,20,01,26,14.00
2018,08,20,01,27,14.00
2018,08,20,01,28,14.00
2018,08,20,01,29,14.00
2018,08,20,01,30,14.00
2018,08,20,01,31,13.90
2018,08,20,01,32,13.90
2018,08,20,01,33,13.90
2018,08,20,01,34,13.90
2018,08,20,01,35,13.90
2018,08,20,01,36,13.90
2018,08,20,01,37,13.90
2018,08,20,01,38,13.90
2018,08,20,01,39,13.90
2018,08,20,01,40,13.90
2018,08,20,01,41,13.80
2018,08,20,01,42,13.80
2018,08,20,01,43,13.80
2018,08,20,01,44,13.80
2018,08,20,01,45,13.80
2018,08,20,01,46,13.80
2018,08,20,01,47,13.80
2018,08,20,01,48,13.80
2018,08,20,01,49,13.80
2018,08,20,01,50,13.80
2018,08,20,01,51,13.70
2018,08,20,01,52,13.70
2018,08,20,01,53,13.70
2018,08,20,01,54,13.70
2018,08,20,01,55,13.70
2018,08,20,01,56,13.70
2018,08,20,01,57,13.70
2018,08,20,01,58,13.70
2018,08,20,01,59,13.70
2018,08,20,02,00,13.70
2018,08,20,02,01,13.70
2018,08,20,02,02,13.70
2018,08,20,02,03,13.70
2018,08,20,02,04,13.70
2018,08,20,02,05,13.70
2018,08,20,02,06,13.70
2018,08,20,02,07,13.60
2018,08,20,02,08,13.60
2018,08,20,02,09,13.60
2018,08,20,02,10,13.60
2018,08,20,02,11,13.60
2018,08,20,02,12,13.60
2018,08,20,02,13,13.60
2018,08,20,02,14,13.60
2018,08,20,02,15,13.60
2018,08,20,02,16,13.60
2018,08,20,02,17,13.60
2018,08,20,02,18,13.60
2018,08,20,02,19,13.60
2018,08,20,02,20,13.60
2018,08,20,02,21,13.60
2018,08,20,02,22,13.60
2018,08,20,02,23,13.50
2018,08,20,02,24,13.50
2018,08,20,02,25,13.50
2018,08,20,02,26,13.60
2018,08,20,02,27,13.60
2018,08,20,02,28,13.60
2018,08,20,02,29,13.60
2018,08,20,02,30,13.50
2018,08,20,02,31,13.50
2018,08,20,02,32,13.50
2018,08,20,02,33,13.50
2018,08,20,02,34,13.50
2018,08,20,02,35,13.50
2018,08,20,02,36,13.50
2018,08,20,02,37,13.50
2018,08,20,02,38,13.50
2018,08,20,02,39,13.50
2018,08,20,02,40,13.50
2018,08,20,02,41,13.60
2018,08,20,02,42,13.60
2018,08,20,02,43,13.60
2018,08,20,02,44,13.60
2018,08,20,02,45,13.60
2018,08,20,02,46,13.60
2018,08,20,02,47,13.60
2018,08,20,02,48,13.60
2018,08,20,02,49,13.60
2018,08,20,02,50,13.70
2018,08,20,02,51,13.70
2018,08,20,02,52,13.70
2018,08,20,02,53,13.70
2018,08,20,02,54,13.70
2018,08,20,02,55,13.70
2018,08,20,02,56,13.70
2018,08,20,02,57,13.70
2018,08,20,02,58,13.70
2018,08,20,02,59,13.70
2018,08,20,03,00,13.70
2018,08,20,03,01,13.70
2018,08,20,03,02,13.70
2018,08,20,03,03,13.70
2018,08,20,03,04,13.70
2018,08,20,03,05,13.70
2018,08,20,03,06,13.70
2018,08,20,03,07,13.80
2018,08,20,03,08,13.80
2018,08,20,03,09,13.80
2018,08,20,03,10,13.80
2018,08,20,03,11,13.90
2018,08,20,03,12,13.90
2018,08,20,03,13,14.00
2018,08,20,03,14,14.00
2018,08,20,03,15,14.10
2018,08,20,03,16,14.10
2018,08,20,03,17,14.10
2018,08,20,03,18,14.10
2018,08,20,03,19,14.10
2018,08,20,03,20,14.10
2018,08,20,03,21,14.10
2018,08,20,03,22,14.10
2018,08,20,03,23,14.10
2018,08,20,03,24,14.10
2018,08,20,03,25,14.10
2018,08,20,03,26,14.10
2018,08,20,03,27,14.20
2018,08,20,03,28,14.20
2018,08,20,03,29,14.20
2018,08,20,03,30,14.20
2018,08,20,03,31,14.20
2018,08,20,03,32,14.20
2018,08,20,03,33,14.20
2018,08,20,03,34,14.20
2018,08,20,03,35,14.10
2018,08,20,03,36,14.10
2018,08,20,03,37,14.10
2018,08,20,03,38,14.10
2018,08,20,03,39,14.10
2018,08,20,03,40,14.10
2018,08,20,03,41,14.10
2018,08,20,03,42,14.10
2018,08,20,03,43,14.10
2018,08,20,03,44,14.10
2018,08,20,03,45,14.10
2018,08,20,03,46,14.10
2018,08,20,03,47,14.10
2018,08,20,03,48,14.00
2018,08,20,03,49,14.00
2018,08,20,03,50,14.00
2018,08,20,03,51,14.00
2018,08,20,03,52,14.00
2018,08,20,03,53,14.00
2018,08,20,03,54,14.00
2018,08,20,03,55,14.00
2018,08,20,03,56,14.00
2018,08,20,03,57,14.00
2018,08,20,03,58,13.90
2018,08,20,03,59,13.90
2018,08,20,04,00,13.90
2018,08,20,04,01,13.90
2018,08,20,04,02,13.90
2018,08,20,04,03,13.90
2018,08,20,04,04,14.00
2018,08,20,04,05,14.00
2018,08,20,04,06,14.00
2018,08,20,04,07,14.10
2018,08,20,04,08,14.10
2018,08,20,04,09,14.10
2018,08,20,04,10,14.10
2018,08,20,04,11,14.10
2018,08,20,04,12,14.20
2018,08,20,04,13,14.20
2018,08,20,04,14,14.20
2018,08,20,04,15,14.20
2018,08,20,04,16,14.20
2018,08,20,04,17,14.20
2018,08,20,04,18,14.20
2018,08,20,04,19,14.10
2018,08,20,04,20,14.10
2018,08,20,04,21,14.10
2018,08,20,04,22,14.10
2018,08,20,04,23,14.10
2018,08,20,04,24,14.10
2018,08,20,04,25,14.10
2018,08,20,04,26,14.10
2018,08,20,04,27,14.10
2018,08,20,04,28,14.10
2018,08,20,04,29,14.00
2018,08,20,04,30,14.00
2018,08,20,04,31,14.00
2018,08,20,04,32,14.00
2018,08,20,04,33,14.00
2018,08,20,04,34,14.00
2018,08,20,04,35,14.00
2018,08,20,04,36,14.00
2018,08,20,04,37,14.00
2018,08,20,04,38,14.00
2018,08,20,04,39,14.00
2018,08,20,04,40,14.00
2018,08,20,04,41,14.00
2018,08,20,04,42,14.10
2018,08,20,04,43,14.10
2018,08,20,04,44,14.10
2018,08,20,04,45,14.10
2018,08,20,04,46,14.10
2018,08,20,04,47,14.10
2018,08,20,04,48,14.10
2018,08,20,04,49,14.10
2018,08,20,04,50,14.10
2018,08,20,04,51,14.10
2018,08,20,04,52,14.10
2018,08,20,04,53,14.10
2018,08,20,04,54,14.10
2018,08,20,04,55,14.10
2018,08,20,04,56,14.10
2018,08,20,04,57,14.10
2018,08,20,04,58,14.10
2018,08,20,04,59,14.10
2018,08,20,05,00,14.00
2018,08,20,05,01,14.00
2018,08,20,05,02,14.00
2018,08,20,05,03,14.00
2018,08,20,05,04,13.90
2018,08,20,05,05,13.90
2018,08,20,05,06,13.90
2018,08,20,05,07,13.90
2018,08,20,05,08,13.90
2018,08,20,05,09,13.90
2018,08,20,05,10,13.80
2018,08,20,05,11,13.80
2018,08,20,05,12,13.80
2018,08,20,05,13,13.80
2018,08,20,05,14,13.80
2018,08,20,05,15,13.80
2018,08,20,05,16,13.80
2018,08,20,05,17,13.80
2018,08,20,05,18,13.80
2018,08,20,05,19,13.80
2018,08,20,05,20,13.80
2018,08,20,05,21,13.80
2018,08,20,05,22,13.80
2018,08,20,05,23,13.80
2018,08,20,05,24,13.80
2018,08,20,05,25,13.80
2018,08,20,05,26,13.80
2018,08,20,05,27,13.90
2018,08,20,05,28,14.00
2018,08,20,05,29,14.10
2018,08,20,05,30,14.20
2018,08,20,05,31,14.20
2018,08,20,05,32,14.20
2018,08,20,05,33,14.20
2018,08,20,05,34,14.20
2018,08,20,05,35,14.10
2018,08,20,05,36,14.10
2018,08,20,05,37,14.10
2018,08,20,05,38,14.10
2018,08,20,05,39,14.10
2018,08,20,05,40,14.00
2018,08,20,05,41,14.00
2018,08,20,05,42,13.90
2018,08,20,05,43,13.90
2018,08,20,05,44,13.90
2018,08,20,05,45,14.00
2018,08,20,05,46,14.10
2018,08,20,05,47,14.20
2018,08,20,05,48,14.30
2018,08,20,05,49,14.40
2018,08,20,05,50,14.50
2018,08,20,05,51,14.60
2018,08,20,05,52,14.80
2018,08,20,05,53,14.80
2018,08,20,05,54,14.80
2018,08,20,05,55,14.80
2018,08,20,05,56,14.80
2018,08,20,05,57,14.80
2018,08,20,05,58,14.70
2018,08,20,05,59,14.60
2018,08,20,06,00,14.60
2018,08,20,06,01,14.50
2018,08,20,06,02,14.40
2018,08,20,06,03,14.40
2018,08,20,06,04,14.40
2018,08,20,06,05,14.40
2018,08,20,06,06,14.30
2018,08,20,06,07,14.30
2018,08,20,06,08,14.30
2018,08,20,06,09,14.20
2018,08,20,06,10,14.20
2018,08,20,06,11,14.10
2018,08,20,06,12,14.10
2018,08,20,06,13,14.00
2018,08,20,06,14,13.90
2018,08,20,06,15,13.90
2018,08,20,06,16,13.90
2018,08,20,06,17,13.90
2018,08,20,06,18,13.90
2018,08,20,06,19,13.90
2018,08,20,06,20,13.90
2018,08,20,06,21,13.90
2018,08,20,06,22,13.90
2018,08,20,06,23,13.80
2018,08,20,06,24,13.80
2018,08,20,06,25,13.80
2018,08,20,06,26,13.90
2018,08,20,06,27,13.80
2018,08,20,06,28,13.90
2018,08,20,06,29,13.90
2018,08,20,06,30,13.90
2018,08,20,06,31,13.80
2018,08,20,06,32,13.80
2018,08,20,06,33,13.80
2018,08,20,06,34,13.80
2018,08,20,06,35,13.80
2018,08,20,06,36,13.80
2018,08,20,06,37,13.80
2018,08,20,06,38,13.80
2018,08,20,06,39,13.80
2018,08,20,06,40,13.80
2018,08,20,06,41,13.80
2018,08,20,06,42,13.80
2018,08,20,06,43,13.80
2018,08,20,06,44,13.80
2018,08,20,06,45,13.80
2018,08,20,06,46,13.80
2018,08,20,06,47,13.70
2018,08,20,06,48,13.70
2018,08,20,06,49,13.70
2018,08,20,06,50,13.70
2018,08,20,06,51,13.70
2018,08,20,06,52,13.70
2018,08,20,06,53,13.70
2018,08,20,06,54,13.80
2018,08,20,06,55,13.80
2018,08,20,06,56,13.70
2018,08,20,06,57,13.70
2018,08,20,06,58,13.70
2018,08,20,06,59,13.60
2018,08,20,07,00,13.60
2018,08,20,07,01,13.60
2018,08,20,07,02,13.60
2018,08,20,07,03,13.60
2018,08,20,07,04,13.60
2018,08,20,07,05,13.70
2018,08,20,07,06,13.70
2018,08,20,07,07,13.70
2018,08,20,07,08,13.70
2018,08,20,07,09,13.70
2018,08,20,07,10,13.80
2018,08,20,07,11,13.80
2018,08,20,07,12,13.80
2018,08,20,07,13,13.80
2018,08,20,07,14,13.80
2018,08,20,07,15,13.90
2018,08,20,07,16,13.90
2018,08,20,07,17,14.00
2018,08,20,07,18,14.00
2018,08,20,07,19,14.10
2018,08,20,07,20,14.10
2018,08,20,07,21,14.20
2018,08,20,07,22,14.20
2018,08,20,07,23,14.20
2018,08,20,07,24,14.30
2018,08,20,07,25,14.30
2018,08,20,07,26,14.20
2018,08,20,07,27,14.20
2018,08,20,07,28,14.20
2018,08,20,07,29,14.20
2018,08,20,07,30,14.20
2018,08,20,07,31,14.20
2018,08,20,07,32,14.20
2018,08,20,07,33,14.30
2018,08,20,07,34,14.30
2018,08,20,07,35,14.30
2018,08,20,07,36,14.30
2018,08,20,07,37,14.40
2018,08,20,07,38,14.40
2018,08,20,07,39,14.40
2018,08,20,07,40,14.40
2018,08,20,07,41,14.40
2018,08,20,07,42,14.40
2018,08,20,07,43,14.40
2018,08,20,07,44,14.40
2018,08,20,07,45,14.40
2018,08,20,07,46,14.40
2018,08,20,07,47,14.40
2018,08,20,07,48,14.40
2018,08,20,07,49,14.40
2018,08,20,07,50,14.40
2018,08,20,07,51,14.50
2018,08,20,07,52,14.50
2018,08,20,07,53,14.50
2018,08,20,07,54,14.50
2018,08,20,07,55,14.50
2018,08,20,07,56,14.60
2018,08,20,07,57,14.60
2018,08,20,07,58,14.60
2018,08,20,07,59,14.60
2018,08,20,08,00,14.60
2018,08,20,08,01,14.60
2018,08,20,08,02,14.60
2018,08,20,08,03,14.60
2018,08,20,08,04,14.70
2018,08,20,08,05,14.70
2018,08,20,08,06,14.70
2018,08,20,08,07,14.70
2018,08,20,08,08,14.70
2018,08,20,08,09,14.70
2018,08,20,08,10,14.80
2018,08,20,08,11,14.80
2018,08,20,08,12,14.80
2018,08,20,08,13,14.80
2018,08,20,08,14,14.80
2018,08,20,08,15,14.80
2018,08,20,08,16,14.80
2018,08,20,08,17,14.90
2018,08,20,08,18,14.90
2018,08,20,08,19,14.90
2018,08,20,08,20,14.90
2018,08,20,08,21,14.90
2018,08,20,08,22,14.90
2018,08,20,08,23,15.00
2018,08,20,08,24,15.00
2018,08,20,08,25,15.00
2018,08,20,08,26,15.10
2018,08,20,08,27,15.10
2018,08,20,08,28,15.10
2018,08,20,08,29,15.10
2018,08,20,08,30,15.20
2018,08,20,08,31,15.20
2018,08,20,08,32,15.20
2018,08,20,08,33,15.30
2018,08,20,08,34,15.30
2018,08,20,08,35,15.40
2018,08,20,08,36,15.40
2018,08,20,08,37,15.50
2018,08,20,08,38,15.50
2018,08,20,08,39,15.60
2018,08,20,08,40,15.70
2018,08,20,08,41,15.70
2018,08,20,08,42,15.80
2018,08,20,08,43,15.80
2018,08,20,08,44,15.90
2018,08,20,08,45,16.00
2018,08,20,08,46,16.10
2018,08,20,08,47,16.10
2018,08,20,08,48,16.20
2018,08,20,08,49,16.30
2018,08,20,08,50,16.30
2018,08,20,08,51,16.40
2018,08,20,08,52,16.50
2018,08,20,08,53,16.50
2018,08,20,08,54,16.60
2018,08,20,08,55,16.70
2018,08,20,08,56,16.80
2018,08,20,08,57,17.00
2018,08,20,08,58,17.20
2018,08,20,08,59,17.40
2018,08,20,09,00,17.50
2018,08,20,09,01,17.70
2018,08,20,09,02,17.90
2018,08,20,09,03,18.00
2018,08,20,09,04,18.10
2018,08,20,09,05,18.20
2018,08,20,09,06,18.30
2018,08,20,09,07,18.40
2018,08,20,09,08,18.50
2018,08,20,09,09,18.60
2018,08,20,09,10,18.70
2018,08,20,09,11,18.70
2018,08,20,09,12,18.80
2018,08,20,09,13,18.90
2018,08,20,09,14,18.90
2018,08,20,09,15,19.00
2018,08,20,09,16,19.00
2018,08,20,09,17,19.10
2018,08,20,09,18,19.10
2018,08,20,09,19,19.10
2018,08,20,09,20,19.10
2018,08,20,09,21,19.20
2018,08,20,09,22,19.20
2018,08,20,09,23,19.20
2018,08,20,09,24,19.20
2018,08,20,09,25,19.30
2018,08,20,09,26,19.30
2018,08,20,09,27,19.30
2018,08,20,09,28,19.30
2018,08,20,09,29,19.30
2018,08,20,09,30,19.30
2018,08,20,09,31,19.30
2018,08,20,09,32,19.30
2018,08,20,09,33,19.30
2018,08,20,09,34,19.30
2018,08,20,09,35,19.30
2018,08,20,09,36,19.30
2018,08,20,09,37,19.30
2018,08,20,09,38,19.30
2018,08,20,09,39,19.30
2018,08,20,09,40,19.30
2018,08,20,09,41,19.30
2018,08,20,09,42,19.30
2018,08,20,09,43,19.30
2018,08,20,09,44,19.30
2018,08,20,09,45,19.30
2018,08,20,09,46,19.30
2018,08,20,09,47,19.30
2018,08,20,09,48,19.30
2018,08,20,09,49,19.30
2018,08,20,09,50,19.30
2018,08,20,09,51,19.30
2018,08,20,09,52,19.30
2018,08,20,09,53,19.30
2018,08,20,09,54,19.30
2018,08,20,09,55,19.30
2018,08,20,09,56,19.30
2018,08,20,09,57,19.30
2018,08,20,09,58,19.40
2018,08,20,09,59,19.40
2018,08,20,10,00,19.40
2018,08,20,10,01,19.50
2018,08,20,10,02,19.50
2018,08,20,10,03,19.50
2018,08,20,10,04,19.50
2018,08,20,10,05,19.60
2018,08,20,10,06,19.60
2018,08,20,10,07,19.60
2018,08,20,10,08,19.60
2018,08,20,10,09,19.60
2018,08,20,10,10,19.60
2018,08,20,10,11,19.70
2018,08,20,10,12,19.70
2018,08,20,10,13,19.70
2018,08,20,10,14,19.70
2018,08,20,10,15,19.70
2018,08,20,10,16,19.80
2018,08,20,10,17,19.80
2018,08,20,10,18,19.80
2018,08,20,10,19,19.90
2018,08,20,10,20,19.90
2018,08,20,10,21,20.00
2018,08,20,10,22,20.00
2018,08,20,10,23,20.10
2018,08,20,10,24,20.10
2018,08,20,10,25,20.20
2018,08,20,10,26,20.20
2018,08,20,10,27,20.20
2018,08,20,10,28,20.30
2018,08,20,10,29,20.30
2018,08,20,10,30,20.30
2018,08,20,10,31,20.40
2018,08,20,10,32,20.40
2018,08,20,10,33,20.40
2018,08,20,10,34,20.40
2018,08,20,10,35,20.50
2018,08,20,10,36,20.50
2018,08,20,10,37,20.50
2018,08,20,10,38,20.60
2018,08,20,10,39,20.60
2018,08,20,10,40,20.60
2018,08,20,10,41,20.70
2018,08,20,10,42,20.70
2018,08,20,10,43,20.80
2018,08,20,10,44,20.90
2018,08,20,10,45,20.90
2018,08,20,10,46,21.00
2018,08,20,10,47,21.10
2018,08,20,10,48,21.10
2018,08,20,10,49,21.20
2018,08,20,10,50,21.20
2018,08,20,10,51,21.30
2018,08,20,10,52,21.30
2018,08,20,10,53,21.40
2018,08,20,10,54,21.40
2018,08,20,10,55,21.50
2018,08,20,10,56,21.50
2018,08,20,10,57,21.60
2018,08,20,10,58,21.60
2018,08,20,10,59,21.70
2018,08,20,11,00,21.70
2018,08,20,11,01,21.70
2018,08,20,11,02,21.80
2018,08,20,11,03,21.80
2018,08,20,11,04,21.80
2018,08,20,11,05,21.80
2018,08,20,11,06,21.80
2018,08,20,11,07,21.90
2018,08,20,11,08,22.00
2018,08,20,11,09,22.00
2018,08,20,11,10,22.10
2018,08,20,11,11,22.10
2018,08,20,11,12,22.20
2018,08,20,11,13,22.20
2018,08,20,11,14,22.30
2018,08,20,11,15,22.30
2018,08,20,11,16,22.30
2018,08,20,11,17,22.30
2018,08,20,11,18,22.40
2018,08,20,11,19,22.40
2018,08,20,11,20,22.40
2018,08,20,11,21,22.50
2018,08,20,11,22,22.50
2018,08,20,11,23,22.60
2018,08,20,11,24,22.60
2018,08,20,11,25,22.60
2018,08,20,11,26,22.70
2018,08,20,11,27,22.70
2018,08,20,11,28,22.80
2018,08,20,11,29,22.80
2018,08,20,11,30,22.90
2018,08,20,11,31,22.90
2018,08,20,11,32,23.00
2018,08,20,11,33,23.10
2018,08,20,11,34,23.20
2018,08,20,11,35,23.20
2018,08,20,11,36,23.30
2018,08,20,11,37,23.40
2018,08,20,11,38,23.40
2018,08,20,11,39,23.50
2018,08,20,11,40,23.60
2018,08,20,11,41,23.60
2018,08,20,11,42,23.70
2018,08,20,11,43,23.80
2018,08,20,11,44,23.90
2018,08,20,11,45,23.90
2018,08,20,11,46,24.00
2018,08,20,11,47,24.00
2018,08,20,11,48,24.10
2018,08,20,11,49,24.20
2018,08,20,11,50,24.30
2018,08,20,11,51,24.30
2018,08,20,11,52,24.40
2018,08,20,11,53,24.50
2018,08,20,11,54,24.60
2018,08,20,11,55,24.70
2018,08,20,11,56,24.80
2018,08,20,11,57,24.80
2018,08,20,11,58,24.80
2018,08,20,11,59,24.80
2018,08,20,12,00,24.90
2018,08,20,12,01,24.90
2018,08,20,12,02,25.00
2018,08,20,12,03,25.10
2018,08,20,12,04,25.20
2018,08,20,12,05,25.20
2018,08,20,12,06,25.30
2018,08,20,12,07,25.30
2018,08,20,12,08,25.40
2018,08,20,12,09,25.40
2018,08,20,12,10,25.40
2018,08,20,12,11,25.40
2018,08,20,12,12,25.50
2018,08,20,12,13,25.50
2018,08,20,12,14,25.50
2018,08,20,12,15,25.50
2018,08,20,12,16,25.50
2018,08,20,12,17,25.60
2018,08,20,12,18,25.60
2018,08,20,12,19,25.70
2018,08,20,12,20,25.70
2018,08,20,12,21,25.70
2018,08,20,12,22,25.70
2018,08,20,12,23,25.80
2018,08,20,12,24,25.80
2018,08,20,12,25,25.90
2018,08,20,12,26,25.90
2018,08,20,12,27,26.00
2018,08,20,12,28,26.10
2018,08,20,12,29,26.10
2018,08,20,12,30,26.10
2018,08,20,12,31,26.20
2018,08,20,12,32,26.20
2018,08,20,12,33,26.20
2018,08,20,12,34,26.30
2018,08,20,12,35,26.30
2018,08,20,12,36,26.40
2018,08,20,12,37,26.50
2018,08,20,12,38,26.50
2018,08,20,12,39,26.60
2018,08,20,12,40,26.60
2018,08,20,12,41,26.70
2018,08,20,12,42,26.80
2018,08,20,12,43,26.80
2018,08,20,12,44,26.90
2018,08,20,12,45,27.00
2018,08,20,12,46,27.10
2018,08,20,12,47,27.10
2018,08,20,12,48,27.10
2018,08,20,12,49,27.10
2018,08,20,12,50,27.10
2018,08,20,12,51,27.20
2018,08,20,12,52,27.20
2018,08,20,12,53,27.20
2018,08,20,12,54,27.30
2018,08,20,12,55,27.40
2018,08,20,12,56,27.50
2018,08,20,12,57,27.60
2018,08,20,12,58,27.60
2018,08,20,12,59,27.60
2018,08,20,13,00,27.70
2018,08,20,13,01,27.80
2018,08,20,13,02,27.80
2018,08,20,13,03,27.80
2018,08,20,13,04,27.80
2018,08,20,13,05,27.80
2018,08,20,13,06,27.90
2018,08,20,13,07,28.00
2018,08,20,13,08,28.10
2018,08,20,13,09,28.00
2018,08,20,13,10,28.00
2018,08,20,13,11,28.00
2018,08,20,13,12,28.00
2018,08,20,13,13,28.00
2018,08,20,13,14,28.10
2018,08,20,13,15,28.20
2018,08,20,13,16,28.20
2018,08,20,13,17,28.30
2018,08,20,13,18,28.30
2018,08,20,13,19,28.30
2018,08,20,13,20,28.40
2018,08,20,13,21,28.40
2018,08,20,13,22,28.40
2018,08,20,13,23,28.50
2018,08,20,13,24,28.50
2018,08,20,13,25,28.60
2018,08,20,13,26,28.70
2018,08,20,13,27,28.80
2018,08,20,13,28,28.90
2018,08,20,13,29,29.00
2018,08,20,13,30,29.10
2018,08,20,13,31,29.10
2018,08,20,13,32,29.10
2018,08,20,13,33,29.10
2018,08,20,13,34,29.10
2018,08,20,13,35,29.10
2018,08,20,13,36,29.20
2018,08,20,13,37,29.20
2018,08,20,13,38,29.20
2018,08,20,13,39,29.20
2018,08,20,13,40,29.20
2018,08,20,13,41,29.30
2018,08,20,13,42,29.30
2018,08,20,13,43,29.30
2018,08,20,13,44,29.30
2018,08,20,13,45,29.40
2018,08,20,13,46,29.60
2018,08,20,13,47,29.60
2018,08,20,13,48,29.70
2018,08,20,13,49,29.70
2018,08,20,13,50,29.70
2018,08,20,13,51,29.70
2018,08,20,13,52,29.60
2018,08,20,13,53,29.60
2018,08,20,13,54,29.70
2018,08,20,13,55,29.70
2018,08,20,13,56,29.70
2018,08,20,13,57,29.70
2018,08,20,13,58,29.60
2018,08,20,13,59,29.60
2018,08,20,14,00,29.60
2018,08,20,14,01,29.60
2018,08,20,14,02,29.60
2018,08,20,14,03,29.70
2018,08,20,14,04,29.70
2018,08,20,14,05,29.80
2018,08,20,14,06,29.80
2018,08,20,14,07,29.80
2018,08,20,14,08,29.90
2018,08,20,14,09,29.90
2018,08,20,14,10,30.00
2018,08,20,14,11,30.00
2018,08,20,14,12,30.00
2018,08,20,14,13,29.90
2018,08,20,14,14,30.00
2018,08,20,14,15,30.00
2018,08,20,14,16,30.00
2018,08,20,14,17,30.00
2018,08,20,14,18,29.90
2018,08,20,14,19,30.00
2018,08,20,14,20,29.90
2018,08,20,14,21,29.90
2018,08,20,14,22,29.90
2018,08,20,14,23,29.90
2018,08,20,14,24,29.90
2018,08,20,14,25,29.90
2018,08,20,14,26,29.90
2018,08,20,14,27,29.90
2018,08,20,14,28,29.90
2018,08,20,14,29,30.00
2018,08,20,14,30,30.00
2018,08,20,14,31,30.00
2018,08,20,14,32,30.00
2018,08,20,14,33,30.00
2018,08,20,14,34,30.00
2018,08,20,14,35,30.10
2018,08,20,14,36,30.10
2018,08,20,14,37,30.00
2018,08,20,14,38,30.10
2018,08,20,14,39,30.10
2018,08,20,14,40,30.20
2018,08,20,14,41,30.20
2018,08,20,14,42,30.30
2018,08,20,14,43,30.30
2018,08,20,14,44,30.30
2018,08,20,14,45,30.30
2018,08,20,14,46,30.30
2018,08,20,14,47,30.30
2018,08,20,14,48,30.20
2018,08,20,14,49,30.20
2018,08,20,14,50,30.20
2018,08,20,14,51,30.20
2018,08,20,14,52,30.20
2018,08,20,14,53,30.20
2018,08,20,14,54,30.30
2018,08,20,14,55,30.30
2018,08,20,14,56,30.40
2018,08,20,14,57,30.50
2018,08,20,14,58,30.50
2018,08,20,14,59,30.50
2018,08,20,15,00,30.50
2018,08,20,15,01,30.40
2018,08,20,15,02,30.40
2018,08,20,15,03,30.30
2018,08,20,15,04,30.30
2018,08,20,15,05,30.30
2018,08,20,15,06,30.40
2018,08,20,15,07,30.40
2018,08,20,15,08,30.30
2018,08,20,15,09,30.30
2018,08,20,15,10,30.30
2018,08,20,15,11,30.30
2018,08,20,15,12,30.30
2018,08,20,15,13,30.30
2018,08,20,15,14,30.30
2018,08,20,15,15,30.30
2018,08,20,15,16,30.30
2018,08,20,15,17,30.40
2018,08,20,15,18,30.40
2018,08,20,15,19,30.40
2018,08,20,15,20,30.40
2018,08,20,15,21,30.30
2018,08,20,15,22,30.30
2018,08,20,15,23,30.30
2018,08,20,15,24,30.30
2018,08,20,15,25,30.30
2018,08,20,15,26,30.30
2018,08,20,15,27,30.40
2018,08,20,15,28,30.40
2018,08,20,15,29,30.50
2018,08,20,15,30,30.60
2018,08,20,15,31,30.60
2018,08,20,15,32,30.60
2018,08,20,15,33,30.70
2018,08,20,15,34,30.70
2018,08,20,15,35,30.70
2018,08,20,15,36,30.80
2018,08,20,15,37,30.80
2018,08,20,15,38,30.90
2018,08,20,15,39,30.90
2018,08,20,15,40,31.00
2018,08,20,15,41,31.10
2018,08,20,15,42,31.20
2018,08,20,15,43,31.20
2018,08,20,15,44,31.30
2018,08,20,15,45,31.40
2018,08,20,15,46,31.40
2018,08,20,15,47,31.40
2018,08,20,15,48,31.40
2018,08,20,15,49,31.50
2018,08,20,15,50,31.50
2018,08,20,15,51,31.40
2018,08,20,15,52,31.40
2018,08,20,15,53,31.50
2018,08,20,15,54,31.50
2018,08,20,15,55,31.60
2018,08,20,15,56,31.70
2018,08,20,15,57,31.80
2018,08,20,15,58,31.80
2018,08,20,15,59,31.90
2018,08,20,16,00,31.90
2018,08,20,16,01,31.90
2018,08,20,16,02,32.00
2018,08,20,16,03,32.00
2018,08,20,16,04,32.00
2018,08,20,16,05,31.90
2018,08,20,16,06,31.90
2018,08,20,16,07,31.80
2018,08,20,16,08,31.80
2018,08,20,16,09,31.80
2018,08,20,16,10,31.90
2018,08,20,16,11,31.90
2018,08,20,16,12,31.90
2018,08,20,16,13,32.00
2018,08,20,16,14,32.10
2018,08,20,16,15,32.00
2018,08,20,16,16,31.90
2018,08,20,16,17,31.80
2018,08,20,16,18,31.90
2018,08,20,16,19,31.90
2018,08,20,16,20,31.90
2018,08,20,16,21,32.00
2018,08,20,16,22,31.90
2018,08,20,16,23,31.80
2018,08,20,16,24,31.80
2018,08,20,16,25,31.70
2018,08,20,16,26,31.70
2018,08,20,16,27,31.70
2018,08,20,16,28,31.70
2018,08,20,16,29,31.70
2018,08,20,16,30,31.60
2018,08,20,16,31,31.50
2018,08,20,16,32,31.40
2018,08,20,16,33,31.40
2018,08,20,16,34,31.40
2018,08,20,16,35,31.30
2018,08,20,16,36,31.30
2018,08,20,16,37,31.30
2018,08,20,16,38,31.30
2018,08,20,16,39,31.30
2018,08,20,16,40,31.40
2018,08,20,16,41,31.40
2018,08,20,16,42,31.40
2018,08,20,16,43,31.40
2018,08,20,16,44,31.50
2018,08,20,16,45,31.40
2018,08,20,16,46,31.40
2018,08,20,16,47,31.40
2018,08,20,16,48,31.50
2018,08,20,16,49,31.50
2018,08,20,16,50,31.60
2018,08,20,16,51,31.50
2018,08,20,16,52,31.50
2018,08,20,16,53,31.40
2018,08,20,16,54,31.40
2018,08,20,16,55,31.40
2018,08,20,16,56,31.40
2018,08,20,16,57,31.40
2018,08,20,16,58,31.40
2018,08,20,16,59,31.40
2018,08,20,17,00,31.40
2018,08,20,17,01,31.30
2018,08,20,17,02,31.30
2018,08,20,17,03,31.30
2018,08,20,17,04,31.30
2018,08,20,17,05,31.30
2018,08,20,17,06,31.30
2018,08,20,17,07,31.30
2018,08,20,17,08,31.30
2018,08,20,17,09,31.30
2018,08,20,17,10,31.20
2018,08,20,17,11,31.20
2018,08,20,17,12,31.10
2018,08,20,17,13,31.10
2018,08,20,17,14,31.10
2018,08,20,17,15,31.10
2018,08,20,17,16,31.10
2018,08,20,17,17,31.10
2018,08,20,17,18,31.10
2018,08,20,17,19,31.10